Sheridan, WY

5:15 PM MDT on August 20, 2017 (GMT -0600)
Sheridan County

Weather History for KSHR - September, 2013

Change the Weather History Date:

Saturday, September 14, 2013

  Actual Average Record
Temperature  
Mean Temperature 61 °F 59 °F  
Max Temperature 69 °F 75 °F 99 °F (1948)
Min Temperature 52 °F 42 °F 24 °F (1993)
Degree Days  
Heating Degree Days 4 7  
Month to date heating degree days 5 71  
Since 1 July heating degree days 6 133  
Cooling Degree Days 0 1  
Month to date cooling degree days 76 22  
Year to date cooling degree days 586 412  
Growing Degree Days 13 (Base 50)    
Moisture  
Dew Point 58 °F    
Average Humidity 82    
Maximum Humidity 97    
Minimum Humidity 66    
Precipitation  
Precipitation 1.49 in 0.05 in 1.49 in (2013)
Month to date precipitation 2.41 0.58  
Year to date precipitation 12.40 10.63  
Sea Level Pressure  
Sea Level Pressure 29.96 in    
Wind  
Wind Speed 9 mph (NW)    
Max Wind Speed 22 mph    
Max Gust Speed 28 mph    
Visibility 7 miles    
Events Rain , Thunderstorm    
T = Trace of Precipitation, MM = Missing Value Source: NWS Daily Summary

Daily Weather History Graph

Daily Weather History Graph

Search for Another Location

Airport or City:

Trip Planner

Search our weather history database for the weather conditions in past years. The results will help you decide how hot, cold, wet, or windy it might be!

Date:

Astronomy

Sep. 14, 2013 Rise Set
Actual Time 6:45 AM MDT 7:19 PM MDT
Civil Twilight 6:16 AM MDT 7:49 PM MDT
Nautical Twilight 5:41 AM MDT 8:24 PM MDT
Astronomical Twilight 5:05 AM MDT 9:00 PM MDT
Moon 4:12 PM MDT (9/14) 1:10 AM MDT (9/14)
Length of Visible Light 13h 32m
Length of Day
12h 34m
Waxing Gibbous, 73% of the Moon is Illuminated
Sep 14
Waxing Gibbous
Sep 19
Full
Sep 26
Last Quarter
Oct 4
New
Oct 11
First Quarter

Hourly Weather History & Observations

Time (MDT) Temp. Dew Point Humidity Pressure Visibility Wind Dir Wind Speed Gust Speed Precip Events Conditions
12:53 AM 55.9 °F 54.0 °F 93% 29.79 in 10.0 mi Calm Calm - N/A   Clear
1:53 AM 53.1 °F 52.0 °F 96% 29.80 in 10.0 mi Calm Calm - N/A   Clear
2:53 AM 53.1 °F 51.1 °F 93% 29.79 in 10.0 mi WSW 3.5 mph - N/A   Clear
3:53 AM 53.1 °F 50.0 °F 89% 29.78 in 10.0 mi West 4.6 mph - N/A   Clear
4:53 AM 57.0 °F 54.0 °F 89% 29.79 in 10.0 mi WNW 11.5 mph - N/A   Clear
5:46 AM 57.2 °F 55.4 °F 94% 29.89 in 10.0 mi WNW 8.1 mph - N/A   Mostly Cloudy
5:53 AM 57.9 °F 55.9 °F 93% 29.83 in 10.0 mi WNW 6.9 mph - N/A   Overcast
6:37 AM 59.0 °F 55.4 °F 88% 29.90 in 10.0 mi West 9.2 mph - N/A   Overcast
6:53 AM 59.0 °F 55.9 °F 90% 29.84 in 10.0 mi West 4.6 mph - N/A   Overcast
7:53 AM 60.1 °F 55.9 °F 86% 29.85 in 10.0 mi Calm Calm - N/A   Overcast
8:21 AM 60.8 °F 55.4 °F 82% 29.91 in 10.0 mi Calm Calm - N/A   Overcast
8:53 AM 61.0 °F 55.9 °F 83% 29.86 in 10.0 mi Calm Calm - N/A   Overcast
9:18 AM 62.6 °F 55.4 °F 77% 29.92 in 10.0 mi Calm Calm - N/A   Overcast
9:53 AM 62.1 °F 57.0 °F 84% 29.86 in 10.0 mi WNW 6.9 mph - N/A   Overcast
10:53 AM 66.0 °F 57.0 °F 73% 29.87 in 10.0 mi NW 11.5 mph - N/A   Overcast
11:53 AM 69.1 °F 57.0 °F 65% 29.87 in 10.0 mi NNW 16.1 mph - N/A   Overcast
12:53 PM 66.9 °F 57.9 °F 73% 29.88 in 10.0 mi NNW 20.7 mph - N/A   Overcast
1:53 PM 63.0 °F 59.0 °F 87% 29.92 in 9.0 mi NNW 17.3 mph 24.2 mph 0.00 in Rain Light Rain
2:22 PM 62.6 °F 59.0 °F 88% 29.97 in 5.0 mi NNW 15.0 mph - 0.01 in Rain Light Rain
2:34 PM 60.8 °F 59.0 °F 94% 29.98 in 1.8 mi NNW 17.3 mph - 0.05 in Rain Heavy Rain
2:53 PM 61.0 °F 59.0 °F 93% 29.94 in 1.2 mi NW 13.8 mph - 0.19 in Rain Heavy Rain
3:01 PM 60.8 °F 59.0 °F 94% 29.99 in 3.0 mi NW 15.0 mph - 0.03 in Rain Rain
3:06 PM 60.8 °F 59.0 °F 94% 29.99 in 2.5 mi NW 11.5 mph - 0.04 in Rain Rain
3:16 PM 60.8 °F 59.0 °F 94% 29.99 in 1.2 mi NW 9.2 mph - 0.11 in Rain Heavy Rain
3:36 PM 60.8 °F 59.0 °F 94% 29.99 in 2.5 mi NW 15.0 mph - 0.22 in Rain Rain
3:46 PM 60.8 °F 59.0 °F 94% 29.99 in 3.0 mi WNW 15.0 mph - 0.24 in Rain Rain
3:53 PM 61.0 °F 59.0 °F 93% 29.95 in 6.0 mi WNW 15.0 mph - 0.25 in Rain Light Rain
4:40 PM 60.8 °F 59.0 °F 94% 30.00 in 1.8 mi NW 15.0 mph - 0.04 in Rain Heavy Rain
4:53 PM 60.1 °F 59.0 °F 96% 29.95 in 1.0 mi WNW 18.4 mph - 0.20 in Rain Heavy Rain
5:06 PM 60.8 °F 59.0 °F 94% 30.01 in 3.0 mi WNW 15.0 mph - 0.10 in Rain Light Rain
5:17 PM 60.8 °F 59.0 °F 94% 30.02 in 10.0 mi WNW 16.1 mph - 0.10 in   Overcast
5:45 PM 60.8 °F 59.0 °F 94% 30.03 in 10.0 mi WNW 9.2 mph 20.7 mph 0.10 in   Overcast
5:53 PM 61.0 °F 59.0 °F 93% 29.97 in 6.0 mi WNW 10.4 mph - 0.11 in Rain Light Rain
6:05 PM 60.8 °F 59.0 °F 94% 30.03 in 7.0 mi NW 15.0 mph - 0.02 in Rain Light Rain
6:50 PM 60.8 °F 57.2 °F 88% 30.04 in 10.0 mi WNW 13.8 mph - 0.02 in Thunderstorm Thunderstorm
6:53 PM 61.0 °F 57.9 °F 90% 29.98 in 9.0 mi NW 13.8 mph - 0.02 in Rain , Thunderstorm Light Thunderstorms and Rain
6:59 PM 60.8 °F 59.0 °F 94% 30.04 in 10.0 mi WNW 15.0 mph - 0.00 in Rain Light Rain
7:10 PM 60.8 °F 59.0 °F 94% 30.05 in 4.0 mi NW 15.0 mph - 0.03 in Rain , Thunderstorm Rain
7:12 PM 60.8 °F 59.0 °F 94% 30.05 in 2.0 mi NW 17.3 mph - 0.04 in Rain , Thunderstorm Heavy Rain
7:18 PM 60.8 °F 59.0 °F 94% 30.05 in 1.2 mi NW 17.3 mph - 0.25 in Rain , Thunderstorm Heavy Rain
7:25 PM 60.8 °F 59.0 °F 94% 30.05 in 2.0 mi WNW 17.3 mph - 0.34 in Rain Rain
7:27 PM 60.8 °F 57.2 °F 88% 30.05 in 3.0 mi NW 17.3 mph - 0.34 in Rain Rain
7:53 PM 61.0 °F 59.0 °F 93% 30.01 in 10.0 mi NW 15.0 mph - 0.35 in Rain Light Rain
8:24 PM 60.8 °F 59.0 °F 94% 30.08 in 10.0 mi NW 9.2 mph - 0.00 in   Overcast
8:53 PM 61.0 °F 59.0 °F 93% 30.03 in 10.0 mi NW 8.1 mph - 0.00 in   Overcast
9:53 PM 61.0 °F 59.0 °F 93% 30.04 in 6.0 mi NW 9.2 mph - 0.01 in Rain Rain
10:53 PM 61.0 °F 59.0 °F 93% 30.05 in 10.0 mi NW 6.9 mph - 0.02 in   Overcast
11:42 PM 60.8 °F 59.0 °F 94% 30.13 in 1.8 mi North 5.8 mph - 0.10 in Rain Heavy Rain
11:53 PM 61.0 °F 59.0 °F 93% 30.05 in 1.2 mi WNW 5.8 mph - 0.33 in Rain Heavy Rain
11:59 PM 60.8 °F 59.0 °F 94% 30.13 in 4.0 mi NW 4.6 mph - 0.01 in Rain Light Rain